Regional Weather Roundup
Issued by NWS Charleston, WV

Home | Current Version | Previous Version | Text Only | Print | Product List | Glossary Off
Versions: 1 2 3 4 5 6 7 8 9 10 11 12 13 14 15 16 17 18 19 20 21 22 23 24 25 26 27 28 29 30 31 32 33 34 35 36 37 38 39 40 41 42 43 44 45 46 47 48 49 50

000
ASUS41 KRLX 040510
RWRRLX
West Virginia Regional Weather Roundup
National Weather Service Charleston WV
100 AM EDT FRI SEP 04 2015

Note: "fair" indicates few or no clouds below 12,000 feet with no
significant weather and/or obstructions to visibility.

WVZ003-040600-
Northern Panhandle of West Virginia

CITY           SKY/WX    TMP DP  RH WIND       PRES   REMARKS
WHEELING       FOG       67  66  97 CALM      30.01S VSB<1/4
$$

WVZ009-040600-
Northwest West Virginia

CITY           SKY/WX    TMP DP  RH WIND       PRES   REMARKS
PARKERSBURG    CLEAR     66  64  93 CALM      30.03R FOG
$$

WVZ006-040600-
Western West Virginia

CITY           SKY/WX    TMP DP  RH WIND       PRES   REMARKS
HUNTINGTON     CLEAR     68  67  96 CALM      29.99S
$$

WVZ015-040600-
West Central West Virginia

CITY           SKY/WX    TMP DP  RH WIND       PRES   REMARKS
CHARLESTON     CLEAR     70  68  93 CALM      30.00R FOG
$$

WVZ022-031-040600-
North Central West Virginia

CITY           SKY/WX    TMP DP  RH WIND       PRES   REMARKS
CLARKSBURG     CLEAR     65  64  97 CALM      30.02R FOG
MORGANTOWN     PTCLDY    70  64  81 SW3       30.03R HAZE
$$

WVZ025-035-042-045-040600-
Southern West Virginia

CITY           SKY/WX    TMP DP  RH WIND       PRES   REMARKS
BECKLEY        PTCLDY    67  63  87 CALM      30.08S
LOGAN            N/A     70  68  94 MISG      30.03S
BLUEFIELD      MOCLDY    71  63  75 W5        30.10S
LEWISBURG      PTCLDY    65  63  92 CALM      30.06F
$$

WVZ047-040600-
Northern Mountains of West Virginia

CITY           SKY/WX    TMP DP  RH WIND       PRES   REMARKS
ELKINS         PTCLDY    66  63  90 CALM      30.06S FOG
$$

WVZ052-040600-
Eastern Panhandle of West Virginia

CITY           SKY/WX    TMP DP  RH WIND       PRES   REMARKS
MARTINSBURG    PTCLDY    68  66  93 CALM      29.95R
PETERSBURG     PTCLDY    67  67  98 CALM      30.00S FOG
$$



USA.gov is the U.S. government's official web portal to all federal, state and local government web resources and services.